Tillbaka till svenska Fidonet
English   Information   Debug  
FILM   0/18
FNEWS_PUBLISH   4751
FN_SYSOP   42035
FN_SYSOP_OLD1   71952
FTP_FIDO   0/2
FTSC_PUBLIC   0/13899
FUNNY   0/4886
GENEALOGY.EUR   0/71
GET_INFO   105
GOLDED   0/408
HAM   3640/16389
HOLYSMOKE   0/6791
HOT_SITES   0/1
HTMLEDIT   0/71
HUB203   466
HUB_100   264
HUB_400   39
HUMOR   0/29
IC   0/2851
INTERNET   0/424
INTERUSER   0/3
IP_CONNECT   719
JAMNNTPD   0/233
JAMTLAND   0/47
KATTY_KORNER   0/41
LAN   0/16
LINUX-USER   0/19
LINUXHELP   0/1155
LINUX   0/22267
LINUX_BBS   0/957
mail   18.68
mail_fore_ok   249
MENSA   0/341
MODERATOR   0/102
MONTE   0/992
MOSCOW_OKLAHOMA   0/1245
MUFFIN   0/783
MUSIC   0/321
N203_STAT   938
N203_SYSCHAT   313
NET203   321
NET204   69
NET_DEV   0/10
NORD.ADMIN   0/101
NORD.CHAT   0/2572
NORD.FIDONET   189
NORD.HARDWARE   0/28
NORD.KULTUR   0/114
NORD.PROG   0/32
NORD.SOFTWARE   0/88
NORD.TEKNIK   0/58
NORD   0/453
OCCULT_CHAT   0/93
OS2BBS   0/787
OS2DOSBBS   0/580
OS2HW   0/42
OS2INET   0/37
OS2LAN   0/134
OS2PROG   0/36
OS2REXX   0/113
OS2USER-L   207
OS2   0/4806
OSDEBATE   6205/18996
PASCAL   0/490
PERL   0/457
PHP   0/45
POINTS   0/405
POLITICS   0/29554
POL_INC   0/14731
PSION   103
R20_ADMIN   1132
R20_AMATORRADIO   0/2
R20_BEST_OF_FIDONET   14
R20_CHAT   0/893
R20_DEPP   0/3
R20_DEV   399
R20_ECHO2   1668
R20_ECHOPRES   0/35
R20_ESTAT   0/719
R20_FIDONETPROG...
...RAM.MYPOINT
  0/2
R20_FIDONETPROGRAM   0/22
R20_FIDONET   0/248
R20_FILEFIND   0/24
R20_FILEFOUND   0/22
R20_HIFI   0/3
R20_INFO2   3559
R20_INTERNET   0/12940
R20_INTRESSE   0/60
R20_INTR_KOM   0/99
R20_KANDIDAT.CHAT   42
R20_KANDIDAT   28
R20_KOM_DEV   112
R20_KONTROLL   0/13360
R20_KORSET   0/18
R20_LOKALTRAFIK   0/24
R20_MODERATOR   0/1852
R20_NC   76
R20_NET200   245
R20_NETWORK.OTH...
...ERNETS
  0/13
R20_OPERATIVSYS...
...TEM.LINUX
  0/44
R20_PROGRAMVAROR   0/1
R20_REC2NEC   534
R20_SFOSM   0/341
R20_SF   0/108
R20_SPRAK.ENGLISH   0/1
R20_SQUISH   107
R20_TEST   2
R20_WORST_OF_FIDONET   20
RAR   0/9
RA_MULTI   106
RA_UTIL   0/162
REGCON.EUR   0/2066
REGCON   0/13
SCIENCE   0/1206
SF   0/239
SHAREWARE_SUPPORT   0/5146
SHAREWRE   0/14
SIMPSONS   0/169
STATS_OLD1   0/2539.065
STATS_OLD2   0/2530
STATS_OLD3   0/2395.095
STATS_OLD4   0/1692.25
SURVIVOR   0/495
SYSOPS_CORNER   0/3
SYSOP   0/84
TAGLINES   0/112
TEAMOS2   0/4530
TECH   0/2617
TEST.444   0/105
TRAPDOOR   0/19
TREK   0/755
TUB   0/290
UFO   0/40
UNIX   0/1316
USA_EURLINK   0/102
USR_MODEMS   0/1
VATICAN   0/2740
VIETNAM_VETS   0/14
VIRUS   0/378
VIRUS_INFO   0/201
VISUAL_BASIC   0/473
WHITEHOUSE   0/5187
WIN2000   0/101
WIN32   0/30
WIN95   0/4291
WIN95_OLD1   18439/70272
WINDOWS   0/1517
WWB_SYSOP   0/419
WWB_TECH   0/810
ZCC-PUBLIC   0/1
ZEC   4

 
4DOS   0/134
ABORTION   0/7
ALASKA_CHAT   0/506
ALLFIX_FILE   0/1313
ALLFIX_FILE_OLD1   0/7997
ALT_DOS   0/152
AMATEUR_RADIO   0/1039
AMIGASALE   0/14
AMIGA   0/331
AMIGA_INT   0/1
AMIGA_PROG   0/20
AMIGA_SYSOP   0/26
ANIME   0/15
ARGUS   0/924
ASCII_ART   0/340
ASIAN_LINK   0/651
ASTRONOMY   0/417
AUDIO   0/92
AUTOMOBILE_RACING   0/105
BABYLON5   0/17862
BAG   135
BATPOWER   0/361
BBBS.ENGLISH   0/382
BBSLAW   0/109
BBS_ADS   0/5290
BBS_INTERNET   0/507
BIBLE   0/3563
BINKD   0/1119
BINKLEY   0/215
BLUEWAVE   0/2173
CABLE_MODEMS   0/25
CBM   0/46
CDRECORD   0/66
CDROM   0/20
CLASSIC_COMPUTER   0/378
COMICS   0/15
CONSPRCY   0/899
COOKING   39899
COOKING_OLD1   0/24719
COOKING_OLD2   0/40862
COOKING_OLD3   0/37489
COOKING_OLD4   0/35496
COOKING_OLD5   9370
C_ECHO   0/189
C_PLUSPLUS   0/31
DIRTY_DOZEN   0/201
DOORGAMES   0/2155
DOS_INTERNET   0/196
duplikat   6102
ECHOLIST   0/18295
EC_SUPPORT   0/318
ELECTRONICS   0/359
ELEKTRONIK.GER   1534
ENET.LINGUISTIC   0/13
ENET.POLITICS   0/4
ENET.SOFT   0/11701
ENET.SYSOP   34210
ENET.TALKS   0/32
ENGLISH_TUTOR   0/2000
EVOLUTION   0/1335
FDECHO   0/217
FDN_ANNOUNCE   0/7068
FIDONEWS   24749
FIDONEWS_OLD1   0/49742
FIDONEWS_OLD2   0/35949
FIDONEWS_OLD3   29490/30874
FIDONEWS_OLD4   0/37224
FIDO_SYSOP   12913
FIDO_UTIL   0/180
FILEFIND   0/209
FILEGATE   0/212
Möte HAM, 16389 texter
 lista första sista föregående nästa
Text 5311, 993 rader
Skriven 2012-05-24 22:30:56 av Amsat List (1:323/120.0)
Ärende: [keps] orb12145.amsa
============================
[keps] orb12145.amsa

Sender: keps-bounces@amsat.org
Return-Path: <keps-bounces@amsat.org>
X-Rcpt: craig.healy@chowda.com
X-UIDL: 1337912983.720

SB KEPS @ AMSAT  $ORB12145.O
Orbital Elements  12145.OSCAR

HR AMSAT ORBITAL ELEMENTS FOR OSCAR SATELLITES
FROM WA5QGD FORT WORTH,TX May 24, 2012
Send SUBSCRIBE KEPS/UNSUBSCRIBE KEPS to majordomo@amsat.org only
BID: ORB12145.O
TO ALL RADIO AMATEURS BT

Satellite: AO-07
Catalog number: 07530
Epoch time:      12145.60270216
Element set:     387
Inclination:      101.4013 deg
RA of node:       143.7249 deg
Eccentricity:    0.0011918
Arg of perigee:   330.2111 deg
Mean anomaly:     029.8287 deg
Mean motion:   12.53589457 rev/day
Decay rate:       -2.7e-07 rev/day^2
Epoch rev:           71709
Checksum:              278

Satellite: FO-29
Catalog number: 24278
Epoch time:      12144.93050638
Element set:    0860
Inclination:      098.5853 deg
RA of node:       248.7609 deg
Eccentricity:    0.0351346
Arg of perigee:   092.1414 deg
Mean anomaly:     271.9992 deg
Mean motion:   13.52983633 rev/day
Decay rate:        8.0e-08 rev/day^2
Epoch rev:           77867
Checksum:              348

Satellite: SO-33
Catalog number: 25509
Epoch time:      12144.32491737
Element set:     238
Inclination:      031.4326 deg
RA of node:       114.3795 deg
Eccentricity:    0.0352417
Arg of perigee:   345.6877 deg
Mean anomaly:     013.3969 deg
Mean motion:   14.28745313 rev/day
Decay rate:       7.20e-06 rev/day^2
Epoch rev:           70909
Checksum:              312

Satellite: RS-22
Catalog number: 27939
Epoch time:      12145.69134226
Element set:     384
Inclination:      097.8134 deg
RA of node:       347.7119 deg
Eccentricity:    0.0013146
Arg of perigee:   344.9974 deg
Mean anomaly:     015.0836 deg
Mean motion:   14.64017415 rev/day
Decay rate:       6.46e-06 rev/day^2
Epoch rev:           46244
Checksum:              316

Satellite: VO-52
Catalog number: 28650
Epoch time:      12144.76419574
Element set:    0110
Inclination:      097.5979 deg
RA of node:       176.9113 deg
Eccentricity:    0.0027624
Arg of perigee:   119.8052 deg
Mean anomaly:     240.5914 deg
Mean motion:   14.82918727 rev/day
Decay rate:      1.002e-05 rev/day^2
Epoch rev:           38135
Checksum:              312

Satellite: HO-68
Catalog number: 36122
Epoch time:      12145.80519324
Element set:     491
Inclination:      100.3629 deg
RA of node:       205.6214 deg
Eccentricity:    0.0007518
Arg of perigee:   159.9755 deg
Mean anomaly:     200.1654 deg
Mean motion:   13.16295643 rev/day
Decay rate:       -4.4e-07 rev/day^2
Epoch rev:           11731
Checksum:              281

/EX
SB KEPS @ AMSAT  $ORB12145.D
Orbital Elements  12145.MICROS

HR AMSAT ORBITAL ELEMENTS FOR THE MICROSATS
FROM WA5QGD FORT WORTH,TX May 24, 2012
Send SUBSCRIBE KEPS/UNSUBSCRIBE KEPS to majordomo@amsat.org only
BID: ORB12145.D
TO ALL RADIO AMATEURS BT

Satellite: UO-11
Catalog number: 14781
Epoch time:      12144.85672526
Element set:    0881
Inclination:      097.9557 deg
RA of node:       204.5876 deg
Eccentricity:    0.0010062
Arg of perigee:   109.6820 deg
Mean anomaly:     250.5480 deg
Mean motion:   14.80433776 rev/day
Decay rate:       6.01e-06 rev/day^2
Epoch rev:           51633
Checksum:              304

Satellite: AO-16
Catalog number: 20439
Epoch time:      12144.84258453
Element set:    0488
Inclination:      098.4278 deg
RA of node:       088.9008 deg
Eccentricity:    0.0010010
Arg of perigee:   229.1109 deg
Mean anomaly:     130.9206 deg
Mean motion:   14.32051388 rev/day
Decay rate:       1.38e-06 rev/day^2
Epoch rev:           16651
Checksum:              290

Satellite: LO-19
Catalog number: 20442
Epoch time:      12144.86927996
Element set:     398
Inclination:      098.3951 deg
RA of node:       092.0184 deg
Eccentricity:    0.0010999
Arg of perigee:   220.2175 deg
Mean anomaly:     139.8189 deg
Mean motion:   14.32269977 rev/day
Decay rate:       1.16e-06 rev/day^2
Epoch rev:           16670
Checksum:              343

Satellite: AO-27
Catalog number: 22825
Epoch time:      12144.88719701
Element set:    0124
Inclination:      098.5728 deg
RA of node:       088.0821 deg
Eccentricity:    0.0008484
Arg of perigee:   357.6852 deg
Mean anomaly:     002.4284 deg
Mean motion:   14.29458408 rev/day
Decay rate:       1.30e-06 rev/day^2
Epoch rev:           97300
Checksum:              312

Satellite: IO-26
Catalog number: 22826
Epoch time:      12144.96271068
Element set:    0860
Inclination:      098.5682 deg
RA of node:       088.5332 deg
Eccentricity:    0.0008907
Arg of perigee:   351.1556 deg
Mean anomaly:     008.9469 deg
Mean motion:   14.29732031 rev/day
Decay rate:       1.09e-06 rev/day^2
Epoch rev:           97314
Checksum:              322

Satellite: GO-32
Catalog number: 25397
Epoch time:      12145.63603584
Element set:     782
Inclination:      098.3606 deg
RA of node:       125.5067 deg
Eccentricity:    0.0001579
Arg of perigee:   032.7883 deg
Mean anomaly:     327.3405 deg
Mean motion:   14.23275170 rev/day
Decay rate:        7.7e-07 rev/day^2
Epoch rev:           72067
Checksum:              310

Satellite: NO-44
Catalog number: 26931
Epoch time:      12144.55833260
Element set:    0048
Inclination:      067.0506 deg
RA of node:       183.8165 deg
Eccentricity:    0.0007671
Arg of perigee:   268.3505 deg
Mean anomaly:     091.6735 deg
Mean motion:   14.29795967 rev/day
Decay rate:       1.52e-06 rev/day^2
Epoch rev:           55572
Checksum:              323

